Overview Statistics Trail Chart Weather Telemetry Raw packets
 

This is the latest recevied weather packets stored in our database for station/object PA3BWK. If no packets are shown the sender has not sent any weather packets the latest 10 day(s).

<< 367 368 369 370 371 372 373 >>
Time Temp. Humidity Pressure Rain* Wind** Luminosity Snow
1788158484 16.67° C 90% 1008.8 hPa 0.25 mm - 19 W/m² -
1788158423 16.67° C 90% 1008.7 hPa 0.25 mm - 19 W/m² -
1788158363 16.67° C 90% 1008.8 hPa 0.25 mm - 27 W/m² -
1788158303 16.67° C 90% 1008.8 hPa 0.25 mm - 25 W/m² -
1788158245 16.67° C 90% 1008.7 hPa 0.25 mm - 21 W/m² -
1788158184 16.67° C 90% 1008.8 hPa 0.25 mm - 18 W/m² -
1788158122 16.67° C 90% 1008.8 hPa 0.25 mm - 16 W/m² -
1788158062 17.22° C 91% 1008.8 hPa 0.25 mm - 14 W/m² -
1788158002 17.22° C 91% 1008.8 hPa 0.25 mm - 12 W/m² -
1788157944 17.22° C 91% 1008.8 hPa 0.25 mm - 11 W/m² -
1788157883 17.22° C 91% 1008.7 hPa 0.25 mm - 11 W/m² -
1788157822 17.22° C 91% 1008.8 hPa 0.25 mm - 12 W/m² -
1788157762 17.22° C 91% 1008.8 hPa 0.25 mm - 12 W/m² -
1788157704 17.22° C 91% 1008.6 hPa 0.25 mm - 11 W/m² -
1788157643 17.22° C 91% 1008.6 hPa 0 mm - 12 W/m² -
1788157582 17.22° C 91% 1008.7 hPa 0 mm - 14 W/m² -
1788157525 16.67° C 91% 1008.6 hPa 0 mm - 16 W/m² -
1788157464 16.67° C 91% 1008.6 hPa 0 mm - 23 W/m² -
1788157404 16.67° C 91% 1008.6 hPa 0 mm - 27 W/m² -
1788157344 16.67° C 92% 1008.5 hPa 0 mm - 28 W/m² -
1788157283 16.67° C 92% 1008.6 hPa 0 mm - 32 W/m² -
1788157224 16.67° C 92% 1008.5 hPa 0 mm - 37 W/m² -
1788157163 16.67° C 91% 1008.5 hPa 0 mm - 49 W/m² -
1788157102 16.67° C 92% 1008.5 hPa 0 mm - 67 W/m² -
1788157044 16.67° C 92% 1008.6 hPa 0 mm - 90 W/m² -

* Rain latest hour (hover to see other rain measurements)
** Current wind speed in m/s (hover to see current wind gust speed)